Date String (YYYY-MM-DD hh:mm:ss) UTC,Instrument flags,absolute air pressure of the measurement (hPa),sample flow rate (lpm),inlet stack bypass flow (lpm),air temperature of the measurement (°C),ambient temperature measured by the external sensor (°C),aerosol sample conditioner tube jacket temperature (°C),OPC LED temperature (°C),internal box temperature (°C),relative humidity of the measurement (%),span deviation,mass concentration of particles derived from Lorenz-Mie calculation of OPC scattering (μg/m³),mass concentration of particles derived from Lorenz-Mie calculation of OPC scattering (μg/m³),mass concentration of particles derived from Lorenz-Mie calculation of OPC scattering (μg/m³)
DateTimeUTC,F1_M11,P_M11,Q1_M11,Q2_M11,T1_M11,T2_M11,T3_M11,T4_M11,T5_M11,U1_M11,ZSPAN_M11,X0_M11,X2_M11,X1_M11
2023-10-31 01:00:00,SystemResetWarning,0835.8,5.00,000.00,024.6,023.4,000.0,033.0,026.0,8.5,-000.3,0009.15,0004.82,0004.51
2023-10-31 01:01:00,SystemResetWarning,0835.7,4.99,000.00,024.6,023.4,000.0,033.0,026.1,8.6,0000.2,0008.84,0004.74,0004.43
2023-10-31 01:02:00,SystemResetWarning,0835.7,5.00,000.00,024.6,023.5,000.0,033.0,026.1,8.8,0001.4,0008.55,0004.66,0004.37
2023-10-31 01:03:00,SystemResetWarning,0835.7,5.00,000.00,024.6,023.5,000.0,033.0,026.1,8.8,0000.4,0008.23,0004.59,0004.29
2023-10-31 01:04:00,SystemResetWarning,0835.8,5.00,000.00,024.6,023.5,000.0,033.0,026.0,8.9,0000.2,0008.48,0004.53,0004.24
2023-10-31 01:05:00,SystemResetWarning,0835.8,5.00,000.00,024.6,023.5,000.0,033.0,026.0,9.0,0000.6,0008.37,0004.45,0004.16
2023-10-31 01:06:00,SystemResetWarning,0835.8,5.00,000.00,024.6,023.5,000.0,033.0,026.0,9.2,0001.3,0008.26,0004.40,0004.12
2023-10-31 01:07:00,SystemResetWarning,0835.8,5.00,000.00,024.6,023.5,000.0,033.0,026.0,9.2,0001.0,0008.28,0004.42,0004.11
2023-10-31 01:08:00,SystemResetWarning,0835.8,5.00,000.00,024.6,023.5,000.0,033.0,026.0,9.3,0001.1,0008.04,0004.36,0004.07
2023-10-31 01:09:00,SystemResetWarning,0835.8,5.00,000.00,024.6,023.5,000.0,033.0,026.1,9.4,0001.0,0007.93,0004.32,0004.04
2023-10-31 01:10:00,SystemResetWarning,0835.9,5.00,000.00,024.6,023.5,000.0,033.0,026.0,9.5,0002.3,0007.82,0004.28,0004.00
2023-10-31 01:11:00,SystemResetWarning,0835.8,4.99,000.00,024.6,023.5,000.0,033.0,026.0,9.5,0000.4,0007.65,0004.22,0003.94
2023-10-31 01:12:00,SystemResetWarning,0835.8,5.00,000.00,024.6,023.5,000.0,033.0,026.0,9.3,-001.5,0007.46,0004.14,0003.88
2023-10-31 01:13:00,SystemResetWarning,0835.9,5.00,000.00,024.6,023.5,000.0,033.0,026.0,8.9,-000.6,0007.50,0004.09,0003.83
2023-10-31 01:14:00,SystemResetWarning,0835.9,5.00,000.00,024.6,023.4,000.0,033.0,025.9,8.3,0000.0,0007.41,0004.03,0003.79
2023-10-31 01:15:00,SystemResetWarning,0835.9,5.00,000.00,024.6,023.4,000.0,033.0,025.9,7.6,0000.0,0007.52,0004.01,0003.76
2023-10-31 01:16:00,SystemResetWarning,0835.8,5.00,000.00,024.6,023.4,000.0,033.0,025.9,6.7,0000.0,0007.55,0004.01,0003.76
2023-10-31 01:17:00,SystemResetWarning,0835.9,5.01,000.00,024.5,023.4,000.0,033.0,025.9,6.2,0000.0,0007.53,0004.01,0003.76
2023-10-31 01:18:00,SystemResetWarning,0835.8,5.00,000.00,024.5,023.4,000.0,033.0,025.9,8.6,0000.0,0007.38,0003.97,0003.75
2023-10-31 01:19:00,SystemResetWarning,0835.9,4.99,000.00,024.5,023.4,000.0,033.0,025.9,8.8,0000.0,0007.48,0003.95,0003.72
2023-10-31 01:20:00,SystemResetWarning,0835.9,4.99,000.00,024.5,023.3,000.0,032.9,025.9,8.1,0000.0,0007.56,0003.94,0003.69
2023-10-31 01:21:00,SystemResetWarning,0835.9,5.00,000.00,024.5,023.3,000.0,032.9,025.9,8.1,0000.0,0007.63,0003.93,0003.66
2023-10-31 01:22:00,SystemResetWarning,0835.9,5.01,000.00,024.5,023.3,000.0,032.9,025.9,8.1,0000.0,0007.64,0003.92,0003.65
2023-10-31 01:23:00,SystemResetWarning,0835.9,5.00,000.00,024.5,023.3,000.0,032.9,025.9,8.6,0000.0,0007.63,0003.94,0003.64
2023-10-31 01:24:00,SystemResetWarning,0835.9,4.99,000.00,024.5,023.3,000.0,032.9,025.9,8.4,0000.0,0007.46,0003.95,0003.64
2023-10-31 01:25:00,SystemResetWarning,0835.9,4.99,000.00,024.5,023.2,000.0,032.9,025.9,8.4,0000.0,0007.46,0003.93,0003.61
2023-10-31 01:26:00,SystemResetWarning,0835.9,4.99,000.00,024.4,023.2,000.0,032.9,025.8,8.6,0000.0,0006.53,0003.88,0003.59
2023-10-31 01:27:00,SystemResetWarning,0835.9,5.00,000.00,024.4,023.2,000.0,032.9,025.7,8.5,0000.0,0006.16,0003.83,0003.55
2023-10-31 01:28:00,SystemResetWarning,0835.9,5.01,000.00,024.4,023.1,000.0,032.9,025.7,8.5,0000.0,0006.11,0003.82,0003.52
2023-10-31 01:29:00,SystemResetWarning,0835.9,5.01,000.00,024.4,023.1,000.0,032.9,025.7,8.5,0000.0,0006.02,0003.80,0003.49
2023-10-31 01:30:00,SystemResetWarning,0836.0,5.00,000.00,024.4,023.1,000.0,032.9,025.7,8.4,0000.0,0006.05,0003.81,0003.48
2023-10-31 01:31:00,SystemResetWarning,0836.0,4.99,000.00,024.4,023.0,000.0,032.9,025.7,8.7,0000.0,0005.84,0003.78,0003.47
2023-10-31 01:32:00,SystemResetWarning,0835.9,4.99,000.00,024.4,023.0,000.0,032.8,025.7,8.8,0000.0,0005.64,0003.76,0003.47
2023-10-31 01:33:00,SystemResetWarning,0836.0,5.00,000.00,024.3,023.0,000.0,032.9,025.6,8.3,0000.0,0005.68,0003.76,0003.46
2023-10-31 01:34:00,SystemResetWarning,0836.0,5.01,000.00,024.3,023.0,000.0,032.8,025.6,8.3,0000.0,0005.61,0003.75,0003.46
2023-10-31 01:35:00,SystemResetWarning,0836.1,5.00,000.00,024.3,023.0,000.0,032.8,025.6,7.9,0000.0,0005.57,0003.73,0003.46
2023-10-31 01:36:00,SystemResetWarning,0836.1,5.00,000.00,024.3,023.0,000.0,032.8,025.6,7.6,0000.0,0005.55,0003.74,0003.46
2023-10-31 01:37:00,SystemResetWarning,0836.1,5.01,000.00,024.3,023.0,000.0,032.8,025.6,7.4,0000.0,0005.65,0003.78,0003.50
2023-10-31 01:38:00,SystemResetWarning,0836.2,5.01,000.00,024.3,023.0,000.0,032.8,025.6,7.9,0000.0,0005.86,0003.85,0003.55
2023-10-31 01:39:00,SystemResetWarning,0836.2,5.01,000.00,024.3,023.0,000.0,032.8,025.6,7.6,0000.0,0005.74,0003.86,0003.59
2023-10-31 01:40:00,SystemResetWarning,0836.2,4.99,000.00,024.2,023.0,000.0,032.8,025.6,7.2,0000.0,0005.64,0003.88,0003.63
2023-10-31 01:41:00,SystemResetWarning,0836.2,4.98,000.00,024.2,023.0,000.0,032.8,025.6,6.6,0000.0,0005.52,0003.89,0003.67
2023-10-31 01:42:00,SystemResetWarning,0836.2,5.00,000.00,024.2,023.0,000.0,032.7,025.6,6.3,0000.0,0006.91,0003.91,0003.71
2023-10-31 01:43:00,SystemResetWarning,0836.2,5.00,000.00,024.2,023.0,000.0,032.7,025.6,6.2,0000.0,0008.07,0003.96,0003.77
2023-10-31 01:44:00,SystemResetWarning,0836.2,5.01,000.00,024.2,023.0,000.0,032.7,025.6,6.0,0000.0,0008.69,0004.03,0003.86
2023-10-31 01:45:00,SystemResetWarning,0836.2,5.01,000.00,024.2,023.1,000.0,032.7,025.6,5.8,0000.0,0008.83,0004.13,0003.94
2023-10-31 01:46:00,SystemResetWarning,0836.2,5.01,000.00,024.2,023.1,000.0,032.7,025.6,5.7,0000.0,0009.00,0004.20,0003.99
2023-10-31 01:47:00,SystemResetWarning,0836.2,4.99,000.00,024.2,023.1,000.0,032.7,025.6,5.7,0000.0,0009.11,0004.26,0004.04
2023-10-31 01:48:00,SystemResetWarning,0836.2,5.00,000.00,024.2,023.1,000.0,032.7,025.6,5.6,0000.0,0009.28,0004.37,0004.12
2023-10-31 01:49:00,SystemResetWarning,0836.2,4.98,000.00,024.2,023.1,000.0,032.7,025.6,5.6,0000.0,0009.29,0004.41,0004.17
2023-10-31 01:50:00,SystemResetWarning,0836.2,5.01,000.00,024.2,023.1,000.0,032.7,025.6,5.6,0000.0,0009.38,0004.46,0004.21
2023-10-31 01:51:00,SystemResetWarning,0836.3,5.01,000.00,024.2,023.1,000.0,032.7,025.6,5.7,0001.2,0009.41,0004.47,0004.21
2023-10-31 01:52:00,SystemResetWarning,0836.3,5.00,000.00,024.2,023.1,000.0,032.7,025.6,6.1,0000.0,0009.36,0004.47,0004.20
2023-10-31 01:53:00,SystemResetWarning,0836.2,4.99,000.00,024.2,023.1,000.0,032.7,025.6,6.4,0000.0,0008.72,0004.53,0004.25
2023-10-31 01:54:00,SystemResetWarning,0836.2,4.99,000.00,024.2,023.1,000.0,032.7,025.6,6.3,0000.0,0008.26,0004.56,0004.27
2023-10-31 01:55:00,SystemResetWarning,0836.2,5.00,000.00,024.2,023.0,000.0,032.6,025.6,6.2,0000.0,0007.78,0004.55,0004.25
2023-10-31 01:56:00,SystemResetWarning,0836.3,5.01,000.00,024.2,023.0,000.0,032.6,025.6,6.1,0000.0,0007.76,0004.50,0004.21
2023-10-31 01:57:00,SystemResetWarning,0836.2,5.01,000.00,024.2,023.0,000.0,032.6,025.5,6.1,0000.0,0007.66,0004.49,0004.22
2023-10-31 01:58:00,SystemResetWarning,0836.3,5.01,000.00,024.2,023.0,000.0,032.6,025.5,6.1,0000.0,0007.60,0004.48,0004.21
2023-10-31 01:59:00,SystemResetWarning,0836.2,5.00,000.00,024.2,023.0,000.0,032.6,025.5,6.0,0000.0,0007.63,0004.42,0004.14
